Flag for Germany Weather past 2 weeks in Neustadt am Rübenberge, Lower Saxony, Germany

Now
37 °F

Passing clouds.


Feels Like: 33 °F
Forecast: 37 / 43 °F
Wind: 6 mph from Northwest

Location: Wunstorf Airport

Current Time: Jan 27, 2015 at 6:02:07 PM

Latest Report: Jan 27, 2015 at 5:20 PM


Visibility: N/A

Pressure: 30.09 "Hg

Humidity: 93%

Dew point: 36 °F

Location of Neustadt am RübenbergeLocation

Historic Weather in Neustadt am Rübenberge — Graph

°F

Neustadt am Rübenberge temperature yesterday

Maximum temperature yesterday: 41 °F (at 7:20 PM)
Minimum temperature yesterday: 36 °F (at 2:20 AM)
Average temperature yesterday: 38 °F

Past Weeks' High & Low Weather Summary

 TemperatureHumidityPressure
High52 °F (Jan 13, 10:20 AM)100% (Jan 13, 5:20 PM)30.33 "Hg (Jan 13, 5:20 PM)
Low23 °F (Jan 21, 6:20 AM)61% (Jan 16, 10:20 AM)29.42 "Hg (Jan 15, 5:20 PM)
Average36 °F85%29.93 "Hg
* Reported Jan 12 4:20 PM — Jan 27 4:20 PM, Neustadt am Rübenberge, Weather by CustomWeather, © 2014

Note: Actual official high and low records may vary slightly from our data, if they occured in-between our weather recording intervals... More about our weather records

Advertising

Neustadt am Rübenberge weather history for previous 24 hours

 ConditionsComfort  
Time TempWeatherWind HumidityBarometerVisibility
4:20 PM
Jan 27
39 °FScattered clouds.9 mph87%30.07 "HgN/A
3:20 PM41 °FPartly sunny.10 mph81%30.07 "HgN/A
2:20 PM41 °FBroken clouds.13 mph81%30.07 "HgN/A
1:20 PM41 °FScattered clouds.17 mph81%30.07 "HgN/A
12:20 PM41 °FScattered clouds.16 mph81%30.07 "HgN/A
11:20 AM39 °FScattered clouds.14 mph87%30.07 "HgN/A
10:20 AM37 °FScattered clouds.15 mph87%30.07 "HgN/A
9:20 AM36 °FScattered clouds.14 mph93%30.07 "HgN/A
8:20 AM36 °FSprinkles. Broken clouds.8 mph93%30.04 "Hg5 mi
7:53 AM36 °FSprinkles. Passing clouds.13 mph93%30.04 "HgN/A
7:20 AM36 °FPartly cloudy.12 mph93%30.04 "HgN/A
6:20 AM36 °FPassing clouds.14 mph93%30.01 "HgN/A
5:20 AM36 °FPartly cloudy.16 mph93%30.01 "HgN/A
4:20 AM36 °FPartly cloudy.14 mph93%30.01 "HgN/A
3:20 AM36 °FPartly cloudy.15 mph93%29.98 "HgN/A
2:20 AM37 °FPassing clouds.15 mph93%29.98 "HgN/A
1:20 AM37 °FPassing clouds.15 mph93%29.98 "HgN/A
12:20 AM37 °FPartly cloudy.16 mph93%29.98 "HgN/A
11:20 PM
Jan 26
39 °FPartly cloudy.17 mph87%29.95 "HgN/A
10:20 PM39 °FPartly cloudy.16 mph93%29.95 "HgN/A
9:20 PM41 °FPartly cloudy.14 mph87%29.95 "HgN/A
8:20 PM41 °FPartly cloudy.13 mph93%29.95 "HgN/A
7:20 PM41 °FPassing clouds.14 mph93%29.92 "Hg4 mi
6:20 PM39 °FDrizzle. Fog.14 mph100%29.92 "Hg3 mi
Weather by CustomWeather, © 2014

See weather overviewHow to use our weather pages